Location: Meanaryar
(48.4161°N, 4.7315°W)
Time: 01:53:08
(UTC+00:00)

Exosat Rocket - Pass Details

Date: 18 September 2020
Orbit: 760 x 2514 km, 72.3° (Epoch: 31 October)

Event Time Altitude Azimuth Distance (km) Brightness Sun altitude
Rises 20:58:31 0° 207° (SSW) 3,663 6.9 -24.9°
Reaches altitude 10° 21:01:14 10° 209° (SSW) 2,560 6.1 -25.2°
Maximum altitude 21:06:47 80° 296° (WNW) 804 3.6 -26.0°
Drops below altitude 10° 21:11:47 10° 24° (NNE) 2,307 6.1 -26.7°
Sets 21:14:08 0° 26° (NNE) 3,272 6.9 -27.0°
